Weather History for Marianna, FL

Change the Weather History Date:

Thursday, September 19, 2013

  Actual Average Record
Temperature  
Mean Temperature 79 °F 77 °F  
Max Temperature 91 °F 88 °F 98 °F (2005)
Min Temperature 66 °F 67 °F 61 °F (2007)
Degree Days  
Heating Degree Days 0    
Month to date heating degree days 0  
Since 1 July heating degree days 0  
Cooling Degree Days 14    
Month to date cooling degree days 314  
Year to date cooling degree days 2177  
Growing Degree Days 28 (Base 50)    
Moisture  
Dew Point 65 °F    
Average Humidity 70    
Maximum Humidity 93    
Minimum Humidity 46    
Precipitation  
Precipitation 0.00 in 0.11 in 1.15 in (1999)
Month to date precipitation 0.57 2.44  
Year to date precipitation 51.25 40.77  
Sea Level Pressure  
Sea Level Pressure 30.06 in    
Wind  
Wind Speed 6 mph (ENE)    
Max Wind Speed 13 mph    
Max Gust Speed 16 mph    
Visibility 10 miles    
Events      
T = Trace of Precipitation, MM = Missing Value Source: NWS Daily Summary

Daily Weather History Graph

Daily Weather History Graph

Search for Another Location

Airport:

Trip Planner

Search our weather history database for the weather conditions in past years. The results will help you decide how hot, cold, wet, or windy it might be!

Date:

Astronomy

Sep. 19, 2013 Rise Set
Actual Time 6:27 AM CDT 6:40 PM CDT
Civil Twilight 6:03 AM CDT 7:04 PM CDT
Nautical Twilight 5:35 AM CDT 7:33 PM CDT
Astronomical Twilight 5:06 AM CDT 8:01 PM CDT
Moon 6:44 PM CDT (9/19) 6:32 AM CDT (9/19)
Length of Visible Light 13h 01m
Length of Day
12h 13m
Full, 100% of the Moon is Illuminated
Sep 19
Full
Sep 26
Last Quarter
Oct 4
New
Oct 11
First Quarter
Oct 18
Full

Hourly Weather History & Observations

Time (CDT) Temp. Heat Index Dew Point Humidity Pressure Visibility Wind Dir Wind Speed Gust Speed Precip Events Conditions
12:53 AM 72.0 °F - 64.9 °F 78% 30.07 in 10.0 mi ENE 4.6 mph - N/A   Clear
1:53 AM 71.1 °F - 64.9 °F 81% 30.07 in 10.0 mi ENE 4.6 mph - N/A   Clear
2:53 AM 69.1 °F - 64.9 °F 87% 30.06 in 10.0 mi NE 3.5 mph - N/A   Clear
3:53 AM 69.1 °F - 64.9 °F 87% 30.06 in 10.0 mi ENE 3.5 mph - N/A   Clear
4:53 AM 66.9 °F - 64.0 °F 90% 30.07 in 10.0 mi NE 3.5 mph - N/A   Clear
5:53 AM 66.9 °F - 64.0 °F 90% 30.08 in 10.0 mi NE 5.8 mph - N/A   Clear
6:53 AM 66.9 °F - 64.0 °F 90% 30.08 in 10.0 mi ENE 4.6 mph - N/A   Clear
7:53 AM 71.1 °F - 64.9 °F 81% 30.09 in 10.0 mi East 8.1 mph - N/A   Clear
8:53 AM 75.0 °F - 64.9 °F 71% 30.11 in 10.0 mi East 9.2 mph - N/A   Clear
9:53 AM 79.0 °F - 66.9 °F 66% 30.12 in 10.0 mi East 5.8 mph - N/A   Clear
10:53 AM 82.0 °F 84.9 °F 68.0 °F 62% 30.12 in 10.0 mi East 6.9 mph - N/A   Partly Cloudy
11:53 AM 84.9 °F 88.2 °F 68.0 °F 57% 30.10 in 10.0 mi East 5.8 mph - N/A   Partly Cloudy
12:53 PM 87.1 °F 90.6 °F 68.0 °F 53% 30.08 in 10.0 mi Variable 6.9 mph - N/A   Mostly Cloudy
1:53 PM 88.0 °F 90.7 °F 66.9 °F 49% 30.06 in 10.0 mi ENE 9.2 mph - N/A   Partly Cloudy
2:53 PM 86.0 °F 88.2 °F 66.0 °F 51% 30.04 in 10.0 mi NE 6.9 mph - N/A   Mostly Cloudy
3:53 PM 90.0 °F 92.4 °F 66.0 °F 45% 30.02 in 10.0 mi NE 9.2 mph - N/A   Partly Cloudy
4:53 PM 88.0 °F 89.3 °F 64.0 °F 45% 30.01 in 10.0 mi NE 6.9 mph - N/A   Clear
5:53 PM 84.9 °F 86.6 °F 64.9 °F 51% 30.02 in 10.0 mi NE 8.1 mph - N/A   Clear
6:53 PM 79.0 °F - 66.0 °F 64% 30.02 in 10.0 mi NE 4.6 mph - N/A   Clear
7:53 PM 77.0 °F - 66.9 °F 71% 30.03 in 10.0 mi East 4.6 mph - N/A   Clear
8:53 PM 75.9 °F - 64.9 °F 69% 30.04 in 10.0 mi ENE 4.6 mph - N/A   Clear
9:53 PM 75.0 °F - 63.0 °F 66% 30.05 in 10.0 mi East 3.5 mph - N/A   Clear
10:53 PM 73.0 °F - 63.0 °F 71% 30.04 in 10.0 mi ENE 3.5 mph - N/A   Clear
11:53 PM 73.0 °F - 63.0 °F 71% 30.04 in 10.0 mi East 3.5 mph - N/A   Scattered Clouds